Weather in Zolotoye

Russia / Saratov Oblast     50°49′38″N   45°53′39″E
temp.,
°C
wind,
m/s
gust,
m/s
humid.,
%
clouds,
%
prec.,
mm/h
press.,
hPa
HPBL,
m
20 april, tue
tue2001:00+9e81287100 0.6 1017293
04:00+7e81288100 0.8 1017352
07:00+5e81391100 3.6 1018516
10:00+6e101484100 4.6 1018583
13:00+7e101579100 0.8 1018592
16:00+7ese121983100 2.3 1017672
19:00+8ese122090100 3.4 1015575
22:00+8se122188100 8.2 1015608
21 april, wed
wed2101:00+8se132278100 3.9 1015616
04:00+9se132166100 3.9 1015561
07:00+7se11178395 0.0 1015547
10:00+8sse111679100 0.0 1016509
13:00+7sse101591100 0.2 1017483
16:00+8sse91290100 0.6 1018352
19:00+8sse8118698 0.0 1018275
22:00+7sse589767 0.0 1020160
22 april, thu
thu2201:00+8sse479784 0.1 1020128
04:00+7se339614 0.1 102136
07:00+7sse349542 0.0 102278
10:00+10sse338152 0.0 1023183
13:00+13sse3466100 0.1 1023434
16:00+13sw336414 0.1 1022642
19:00+12sw11684 0.0 102213
22:00+10se5878100 0.3 1023130
23 april, fri
fri2301:00+8se238368 0.0 102431
04:00+7se3387100 0.0 102433
07:00+7ene2289100 0.0 102449
10:00+9ne3377100 0.0 1024201
13:00+12nne4568100 0.0 1023364
16:00+14ne456098 0.0 1022663
19:00+12ene4668100 0.0 1021177
22:00+10e2281100 0.0 102012
24 april, sat
sat2401:00+9n2283100 0.0 101912
04:00+8nne228512 0.0 101813
07:00+8ne11865 0.0 101727
10:00+9ssw11785 0.0 1017236
13:00+11ssw23735 0.0 1015575
16:00+12sw5775100 1.1 1014557
19:00+13s5665100 0.9 1012134
22:00+9w6992100 2.5 1013236